#datetime,building,power
2023-09-09T00:00:00,rvs,15.14
2023-09-09T00:01:00,rvs,15.42
2023-09-09T00:02:00,rvs,15.14
2023-09-09T00:03:00,rvs,15.69
2023-09-09T00:04:00,rvs,17.98
2023-09-09T00:05:00,rvs,18.68
2023-09-09T00:06:00,rvs,18.20
2023-09-09T00:07:00,rvs,18.40
2023-09-09T00:08:00,rvs,19.67
2023-09-09T00:09:00,rvs,19.77
2023-09-09T00:10:00,rvs,18.53
2023-09-09T00:11:00,rvs,18.49
2023-09-09T00:12:00,rvs,16.44
2023-09-09T00:13:00,rvs,16.49
2023-09-09T00:14:00,rvs,16.74
2023-09-09T00:15:00,rvs,12.55
2023-09-09T00:16:00,rvs,12.44
2023-09-09T00:17:00,rvs,14.62
2023-09-09T00:18:00,rvs,17.41
2023-09-09T00:19:00,rvs,18.07
2023-09-09T00:20:00,rvs,18.98
2023-09-09T00:21:00,rvs,20.00
2023-09-09T00:22:00,rvs,21.13
2023-09-09T00:23:00,rvs,20.38
2023-09-09T00:24:00,rvs,20.30
2023-09-09T00:25:00,rvs,20.69
2023-09-09T00:26:00,rvs,15.92
2023-09-09T00:27:00,rvs,16.19
2023-09-09T00:28:00,rvs,16.42
2023-09-09T00:29:00,rvs,16.08
2023-09-09T00:30:00,rvs,16.24
2023-09-09T00:31:00,rvs,18.60
2023-09-09T00:32:00,rvs,18.31
2023-09-09T00:33:00,rvs,18.73
2023-09-09T00:34:00,rvs,19.63
2023-09-09T00:35:00,rvs,19.79
2023-09-09T00:36:00,rvs,19.52
2023-09-09T00:37:00,rvs,15.76
2023-09-09T00:38:00,rvs,15.89
2023-09-09T00:39:00,rvs,16.38
2023-09-09T00:40:00,rvs,16.82
2023-09-09T00:41:00,rvs,17.35
2023-09-09T00:42:00,rvs,20.79
2023-09-09T00:43:00,rvs,24.28
2023-09-09T00:44:00,rvs,25.36
2023-09-09T00:45:00,rvs,25.45
2023-09-09T00:46:00,rvs,40.50
2023-09-09T00:47:00,rvs,36.63
2023-09-09T00:48:00,rvs,40.81
2023-09-09T00:49:00,rvs,40.47
2023-09-09T00:50:00,rvs,40.94
2023-09-09T00:51:00,rvs,28.77
2023-09-09T00:52:00,rvs,29.12
2023-09-09T00:53:00,rvs,28.92
2023-09-09T00:54:00,rvs,24.28
2023-09-09T00:55:00,rvs,24.55
2023-09-09T00:56:00,rvs,20.95
2023-09-09T00:57:00,rvs,23.22
2023-09-09T00:58:00,rvs,23.79
2023-09-09T00:59:00,rvs,26.76
2023-09-09T01:00:00,rvs,30.04
2023-09-09T01:01:00,rvs,30.75
2023-09-09T01:02:00,rvs,31.61
2023-09-09T01:03:00,rvs,29.92
2023-09-09T01:04:00,rvs,26.60
2023-09-09T01:05:00,rvs,31.46
2023-09-09T01:06:00,rvs,27.06
2023-09-09T01:07:00,rvs,27.17
2023-09-09T01:08:00,rvs,24.79
2023-09-09T01:09:00,rvs,24.48
2023-09-09T01:10:00,rvs,25.10
2023-09-09T01:11:00,rvs,21.98
2023-09-09T01:12:00,rvs,21.73
2023-09-09T01:13:00,rvs,21.93
2023-09-09T01:14:00,rvs,27.86
2023-09-09T01:15:00,rvs,20.00
2023-09-09T01:16:00,rvs,15.77
2023-09-09T01:17:00,rvs,15.37
2023-09-09T01:18:00,rvs,22.55
2023-09-09T01:19:00,rvs,19.29
2023-09-09T01:20:00,rvs,19.14
2023-09-09T01:21:00,rvs,19.88
2023-09-09T01:22:00,rvs,25.55
2023-09-09T01:23:00,rvs,21.79
2023-09-09T01:24:00,rvs,21.43
2023-09-09T01:25:00,rvs,21.11
2023-09-09T01:26:00,rvs,25.28
2023-09-09T01:27:00,rvs,20.91
2023-09-09T01:28:00,rvs,21.07
2023-09-09T01:29:00,rvs,20.76
2023-09-09T01:30:00,rvs,20.67
2023-09-09T01:31:00,rvs,16.53
2023-09-09T01:32:00,rvs,12.27
2023-09-09T01:33:00,rvs,12.10
2023-09-09T01:34:00,rvs,12.11
2023-09-09T01:35:00,rvs,12.19
2023-09-09T01:36:00,rvs,12.14
2023-09-09T01:37:00,rvs,12.43
2023-09-09T01:38:00,rvs,12.37
2023-09-09T01:39:00,rvs,19.19
2023-09-09T01:40:00,rvs,15.79
2023-09-09T01:41:00,rvs,15.94
2023-09-09T01:42:00,rvs,16.23
2023-09-09T01:43:00,rvs,16.02
2023-09-09T01:44:00,rvs,15.66
2023-09-09T01:45:00,rvs,16.41
2023-09-09T01:46:00,rvs,17.21
2023-09-09T01:47:00,rvs,19.28
2023-09-09T01:48:00,rvs,19.50
2023-09-09T01:49:00,rvs,19.52
2023-09-09T01:50:00,rvs,19.78
2023-09-09T01:51:00,rvs,15.67
2023-09-09T01:52:00,rvs,15.43
2023-09-09T01:53:00,rvs,17.56
2023-09-09T01:54:00,rvs,19.23
2023-09-09T01:55:00,rvs,19.30
2023-09-09T01:56:00,rvs,19.78
2023-09-09T01:57:00,rvs,20.09
2023-09-09T01:58:00,rvs,20.43
2023-09-09T01:59:00,rvs,20.24
2023-09-09T02:00:00,rvs,19.62
2023-09-09T02:01:00,rvs,19.80
2023-09-09T02:02:00,rvs,20.31
2023-09-09T02:03:00,rvs,20.15
2023-09-09T02:04:00,rvs,18.83
2023-09-09T02:05:00,rvs,15.96
2023-09-09T02:06:00,rvs,16.99
2023-09-09T02:07:00,rvs,18.07
2023-09-09T02:08:00,rvs,17.12
2023-09-09T02:09:00,rvs,17.35
2023-09-09T02:10:00,rvs,20.03
2023-09-09T02:11:00,rvs,22.15
2023-09-09T02:12:00,rvs,19.61
2023-09-09T02:13:00,rvs,14.35
2023-09-09T02:14:00,rvs,14.92
2023-09-09T02:15:00,rvs,17.48
2023-09-09T02:16:00,rvs,17.91
2023-09-09T02:17:00,rvs,17.68
2023-09-09T02:18:00,rvs,18.31
2023-09-09T02:19:00,rvs,20.89
2023-09-09T02:20:00,rvs,20.98
2023-09-09T02:21:00,rvs,21.40
2023-09-09T02:22:00,rvs,21.04
2023-09-09T02:23:00,rvs,21.98
2023-09-09T02:24:00,rvs,23.12
2023-09-09T02:25:00,rvs,19.44
2023-09-09T02:26:00,rvs,19.63
2023-09-09T02:27:00,rvs,19.50
2023-09-09T02:28:00,rvs,21.13
2023-09-09T02:29:00,rvs,21.81
2023-09-09T02:30:00,rvs,21.50
2023-09-09T02:31:00,rvs,20.87
2023-09-09T02:32:00,rvs,21.73
2023-09-09T02:33:00,rvs,19.29
2023-09-09T02:34:00,rvs,19.14
2023-09-09T02:35:00,rvs,19.16
2023-09-09T02:36:00,rvs,11.50
2023-09-09T02:37:00,rvs,11.47
2023-09-09T02:38:00,rvs,11.49
2023-09-09T02:39:00,rvs,11.58
2023-09-09T02:40:00,rvs,11.60
2023-09-09T02:41:00,rvs,11.59
2023-09-09T02:42:00,rvs,11.65
2023-09-09T02:43:00,rvs,12.02
2023-09-09T02:44:00,rvs,11.96
2023-09-09T02:45:00,rvs,11.84
2023-09-09T02:46:00,rvs,11.30
2023-09-09T02:47:00,rvs,11.35
2023-09-09T02:48:00,rvs,11.33
2023-09-09T02:49:00,rvs,11.40
2023-09-09T02:50:00,rvs,11.37
2023-09-09T02:51:00,rvs,11.36
2023-09-09T02:52:00,rvs,11.37
2023-09-09T02:53:00,rvs,13.64
2023-09-09T02:54:00,rvs,14.29
2023-09-09T02:55:00,rvs,14.68
2023-09-09T02:56:00,rvs,15.22
2023-09-09T02:57:00,rvs,15.29
2023-09-09T02:58:00,rvs,14.95
2023-09-09T02:59:00,rvs,15.31
2023-09-09T03:00:00,rvs,15.30
2023-09-09T03:01:00,rvs,15.54
2023-09-09T03:02:00,rvs,15.65
2023-09-09T03:03:00,rvs,15.70
2023-09-09T03:04:00,rvs,15.66
2023-09-09T03:05:00,rvs,15.10
2023-09-09T03:06:00,rvs,11.04
2023-09-09T03:07:00,rvs,10.99
2023-09-09T03:08:00,rvs,11.12
2023-09-09T03:09:00,rvs,11.16
2023-09-09T03:10:00,rvs,11.20
2023-09-09T03:11:00,rvs,11.30
2023-09-09T03:12:00,rvs,11.37
2023-09-09T03:13:00,rvs,11.34
2023-09-09T03:14:00,rvs,11.32
2023-09-09T03:15:00,rvs,12.04
2023-09-09T03:16:00,rvs,11.80
2023-09-09T03:17:00,rvs,11.79
2023-09-09T03:18:00,rvs,14.11
2023-09-09T03:19:00,rvs,13.44
2023-09-09T03:20:00,rvs,13.72
2023-09-09T03:21:00,rvs,15.64
2023-09-09T03:22:00,rvs,20.23
2023-09-09T03:23:00,rvs,20.51
2023-09-09T03:24:00,rvs,21.36
2023-09-09T03:25:00,rvs,22.54
2023-09-09T03:26:00,rvs,24.58
2023-09-09T03:27:00,rvs,23.93
2023-09-09T03:28:00,rvs,24.22
2023-09-09T03:29:00,rvs,24.71
2023-09-09T03:30:00,rvs,27.22
2023-09-09T03:31:00,rvs,27.92
2023-09-09T03:32:00,rvs,27.85
2023-09-09T03:33:00,rvs,24.05
2023-09-09T03:34:00,rvs,20.08
2023-09-09T03:35:00,rvs,21.13
2023-09-09T03:36:00,rvs,19.71
2023-09-09T03:37:00,rvs,18.87
2023-09-09T03:38:00,rvs,18.46
2023-09-09T03:39:00,rvs,31.65
2023-09-09T03:40:00,rvs,32.37
2023-09-09T03:41:00,rvs,31.59
2023-09-09T03:42:00,rvs,18.22
2023-09-09T03:43:00,rvs,18.73
2023-09-09T03:44:00,rvs,19.08
2023-09-09T03:45:00,rvs,19.13
2023-09-09T03:46:00,rvs,19.78
2023-09-09T03:47:00,rvs,21.16
2023-09-09T03:48:00,rvs,21.52
2023-09-09T03:49:00,rvs,20.80
2023-09-09T03:50:00,rvs,20.14
2023-09-09T03:51:00,rvs,19.92
2023-09-09T03:52:00,rvs,15.56
2023-09-09T03:53:00,rvs,15.60
2023-09-09T03:54:00,rvs,15.80
2023-09-09T03:55:00,rvs,15.95
2023-09-09T03:56:00,rvs,15.73
2023-09-09T03:57:00,rvs,16.20
2023-09-09T03:58:00,rvs,19.54
2023-09-09T03:59:00,rvs,20.64
2023-09-09T04:00:00,rvs,20.30
2023-09-09T04:01:00,rvs,26.56
2023-09-09T04:02:00,rvs,26.15
2023-09-09T04:03:00,rvs,26.93
2023-09-09T04:04:00,rvs,27.94
2023-09-09T04:05:00,rvs,29.30
2023-09-09T04:06:00,rvs,29.95
2023-09-09T04:07:00,rvs,31.77
2023-09-09T04:08:00,rvs,32.09
2023-09-09T04:09:00,rvs,34.21
2023-09-09T04:10:00,rvs,34.30
2023-09-09T04:11:00,rvs,24.51
2023-09-09T04:12:00,rvs,24.82
2023-09-09T04:13:00,rvs,25.71
2023-09-09T04:14:00,rvs,20.87
2023-09-09T04:15:00,rvs,20.82
2023-09-09T04:16:00,rvs,20.75
2023-09-09T04:17:00,rvs,20.79
2023-09-09T04:18:00,rvs,15.97
2023-09-09T04:19:00,rvs,15.17
2023-09-09T04:20:00,rvs,15.36
2023-09-09T04:21:00,rvs,15.35
2023-09-09T04:22:00,rvs,15.64
2023-09-09T04:23:00,rvs,15.76
2023-09-09T04:24:00,rvs,11.37
2023-09-09T04:25:00,rvs,11.33
2023-09-09T04:26:00,rvs,11.43
2023-09-09T04:27:00,rvs,11.44
2023-09-09T04:28:00,rvs,11.56
2023-09-09T04:29:00,rvs,11.44
2023-09-09T04:30:00,rvs,11.52
2023-09-09T04:31:00,rvs,11.51
2023-09-09T04:32:00,rvs,11.54
2023-09-09T04:33:00,rvs,11.51
2023-09-09T04:34:00,rvs,11.56
2023-09-09T04:35:00,rvs,11.44
2023-09-09T04:36:00,rvs,11.54
2023-09-09T04:37:00,rvs,11.48
2023-09-09T04:38:00,rvs,11.37
2023-09-09T04:39:00,rvs,13.82
2023-09-09T04:40:00,rvs,13.82
2023-09-09T04:41:00,rvs,13.67
2023-09-09T04:42:00,rvs,14.25
2023-09-09T04:43:00,rvs,15.03
2023-09-09T04:44:00,rvs,14.95
2023-09-09T04:45:00,rvs,14.92
2023-09-09T04:46:00,rvs,17.74
2023-09-09T04:47:00,rvs,18.95
2023-09-09T04:48:00,rvs,19.65
2023-09-09T04:49:00,rvs,19.44
2023-09-09T04:50:00,rvs,19.85
2023-09-09T04:51:00,rvs,21.38
2023-09-09T04:52:00,rvs,21.61
2023-09-09T04:53:00,rvs,21.59
2023-09-09T04:54:00,rvs,22.22
2023-09-09T04:55:00,rvs,22.43
2023-09-09T04:56:00,rvs,23.02
2023-09-09T04:57:00,rvs,19.36
2023-09-09T04:58:00,rvs,19.16
2023-09-09T04:59:00,rvs,19.49
2023-09-09T05:00:00,rvs,19.74
2023-09-09T05:01:00,rvs,19.79
2023-09-09T05:02:00,rvs,16.33
2023-09-09T05:03:00,rvs,16.55
2023-09-09T05:04:00,rvs,16.41
2023-09-09T05:05:00,rvs,11.13
2023-09-09T05:06:00,rvs,11.04
2023-09-09T05:07:00,rvs,11.05
2023-09-09T05:08:00,rvs,10.95
2023-09-09T05:09:00,rvs,10.77
2023-09-09T05:10:00,rvs,10.88
2023-09-09T05:11:00,rvs,13.89
2023-09-09T05:12:00,rvs,14.30
2023-09-09T05:13:00,rvs,14.42
2023-09-09T05:14:00,rvs,14.70
2023-09-09T05:15:00,rvs,14.98
2023-09-09T05:16:00,rvs,15.33
2023-09-09T05:17:00,rvs,15.51
2023-09-09T05:18:00,rvs,15.94
2023-09-09T05:19:00,rvs,15.65
2023-09-09T05:20:00,rvs,16.50
2023-09-09T05:21:00,rvs,16.22
2023-09-09T05:22:00,rvs,18.57
2023-09-09T05:23:00,rvs,18.54
2023-09-09T05:24:00,rvs,14.71
2023-09-09T05:25:00,rvs,13.72
2023-09-09T05:26:00,rvs,12.51
2023-09-09T05:27:00,rvs,11.59
2023-09-09T05:28:00,rvs,11.54
2023-09-09T05:29:00,rvs,11.45
2023-09-09T05:30:00,rvs,11.45
2023-09-09T05:31:00,rvs,11.16
2023-09-09T05:32:00,rvs,11.15
2023-09-09T05:33:00,rvs,11.05
2023-09-09T05:34:00,rvs,11.01
2023-09-09T05:35:00,rvs,10.87
2023-09-09T05:36:00,rvs,10.99
2023-09-09T05:37:00,rvs,10.93
2023-09-09T05:38:00,rvs,11.04
2023-09-09T05:39:00,rvs,10.99
2023-09-09T05:40:00,rvs,10.88
2023-09-09T05:41:00,rvs,10.91
2023-09-09T05:42:00,rvs,10.95
2023-09-09T05:43:00,rvs,10.91
2023-09-09T05:44:00,rvs,10.89
2023-09-09T05:45:00,rvs,10.93
2023-09-09T05:46:00,rvs,13.38
2023-09-09T05:47:00,rvs,13.58
2023-09-09T05:48:00,rvs,13.87
2023-09-09T05:49:00,rvs,14.96
2023-09-09T05:50:00,rvs,14.89
2023-09-09T05:51:00,rvs,15.10
2023-09-09T05:52:00,rvs,16.19
2023-09-09T05:53:00,rvs,16.03
2023-09-09T05:54:00,rvs,15.79
2023-09-09T05:55:00,rvs,15.88
2023-09-09T05:56:00,rvs,15.89
2023-09-09T05:57:00,rvs,16.04
2023-09-09T05:58:00,rvs,12.59
2023-09-09T05:59:00,rvs,13.50
2023-09-09T06:00:00,rvs,13.63
2023-09-09T06:01:00,rvs,13.40
2023-09-09T06:02:00,rvs,13.71
2023-09-09T06:03:00,rvs,14.86
2023-09-09T06:04:00,rvs,15.47
2023-09-09T06:05:00,rvs,15.76
2023-09-09T06:06:00,rvs,15.66
2023-09-09T06:07:00,rvs,15.87
2023-09-09T06:08:00,rvs,15.82
2023-09-09T06:09:00,rvs,15.94
2023-09-09T06:10:00,rvs,16.17
2023-09-09T06:11:00,rvs,15.88
2023-09-09T06:12:00,rvs,15.86
2023-09-09T06:13:00,rvs,18.34
2023-09-09T06:14:00,rvs,19.12
2023-09-09T06:15:00,rvs,19.78
2023-09-09T06:16:00,rvs,20.02
2023-09-09T06:17:00,rvs,20.73
2023-09-09T06:18:00,rvs,21.09
2023-09-09T06:19:00,rvs,15.85
2023-09-09T06:20:00,rvs,12.18
2023-09-09T06:21:00,rvs,14.51
2023-09-09T06:22:00,rvs,16.09
2023-09-09T06:23:00,rvs,16.89
2023-09-09T06:24:00,rvs,17.88
2023-09-09T06:25:00,rvs,18.98
2023-09-09T06:26:00,rvs,19.55
2023-09-09T06:27:00,rvs,20.13
2023-09-09T06:28:00,rvs,19.98
2023-09-09T06:29:00,rvs,23.21
2023-09-09T06:30:00,rvs,23.13
2023-09-09T06:31:00,rvs,25.66
2023-09-09T06:32:00,rvs,25.88
2023-09-09T06:33:00,rvs,26.16
2023-09-09T06:34:00,rvs,27.51
2023-09-09T06:35:00,rvs,26.76
2023-09-09T06:36:00,rvs,26.43
2023-09-09T06:37:00,rvs,17.36
2023-09-09T06:38:00,rvs,18.29
2023-09-09T06:39:00,rvs,32.10
2023-09-09T06:40:00,rvs,32.05
2023-09-09T06:41:00,rvs,31.46
2023-09-09T06:42:00,rvs,18.53
2023-09-09T06:43:00,rvs,16.02
2023-09-09T06:44:00,rvs,15.22
2023-09-09T06:45:00,rvs,10.61
2023-09-09T06:46:00,rvs,10.62
2023-09-09T06:47:00,rvs,10.54
2023-09-09T06:48:00,rvs,10.61
2023-09-09T06:49:00,rvs,10.75
2023-09-09T06:50:00,rvs,10.77
2023-09-09T06:51:00,rvs,10.88
2023-09-09T06:52:00,rvs,10.85
2023-09-09T06:53:00,rvs,11.08
2023-09-09T06:54:00,rvs,10.73
2023-09-09T06:55:00,rvs,10.89
2023-09-09T06:56:00,rvs,11.83
2023-09-09T06:57:00,rvs,13.12
2023-09-09T06:58:00,rvs,13.96
2023-09-09T06:59:00,rvs,13.35
2023-09-09T07:00:00,rvs,13.15
2023-09-09T07:01:00,rvs,13.49
2023-09-09T07:02:00,rvs,13.87
2023-09-09T07:03:00,rvs,16.78
2023-09-09T07:04:00,rvs,17.20
2023-09-09T07:05:00,rvs,17.20
2023-09-09T07:06:00,rvs,17.59
2023-09-09T07:07:00,rvs,18.41
2023-09-09T07:08:00,rvs,19.27
2023-09-09T07:09:00,rvs,19.32
2023-09-09T07:10:00,rvs,14.77
2023-09-09T07:11:00,rvs,14.02
2023-09-09T07:12:00,rvs,15.29
2023-09-09T07:13:00,rvs,10.76
2023-09-09T07:14:00,rvs,10.61
2023-09-09T07:15:00,rvs,12.85
2023-09-09T07:16:00,rvs,13.47
2023-09-09T07:17:00,rvs,13.78
2023-09-09T07:18:00,rvs,14.44
2023-09-09T07:19:00,rvs,15.05
2023-09-09T07:20:00,rvs,14.56
2023-09-09T07:21:00,rvs,15.52
2023-09-09T07:22:00,rvs,15.22
2023-09-09T07:23:00,rvs,15.49
2023-09-09T07:24:00,rvs,16.07
2023-09-09T07:25:00,rvs,16.75
2023-09-09T07:26:00,rvs,16.60
2023-09-09T07:27:00,rvs,17.17
2023-09-09T07:28:00,rvs,16.88
2023-09-09T07:29:00,rvs,11.60
2023-09-09T07:30:00,rvs,11.68
2023-09-09T07:31:00,rvs,11.88
2023-09-09T07:32:00,rvs,11.89
2023-09-09T07:33:00,rvs,11.77
2023-09-09T07:34:00,rvs,11.72
2023-09-09T07:35:00,rvs,11.81
2023-09-09T07:36:00,rvs,11.75
2023-09-09T07:37:00,rvs,11.37
2023-09-09T07:38:00,rvs,11.41
2023-09-09T07:39:00,rvs,11.55
2023-09-09T07:40:00,rvs,11.20
2023-09-09T07:41:00,rvs,11.85
2023-09-09T07:42:00,rvs,11.76
2023-09-09T07:43:00,rvs,11.82
2023-09-09T07:44:00,rvs,11.48
2023-09-09T07:45:00,rvs,11.65
2023-09-09T07:46:00,rvs,11.13
2023-09-09T07:47:00,rvs,11.05
2023-09-09T07:48:00,rvs,11.13
2023-09-09T07:49:00,rvs,11.15
2023-09-09T07:50:00,rvs,12.12
2023-09-09T07:51:00,rvs,11.15
2023-09-09T07:52:00,rvs,11.22
2023-09-09T07:53:00,rvs,11.05
2023-09-09T07:54:00,rvs,10.97
2023-09-09T07:55:00,rvs,12.04
2023-09-09T07:56:00,rvs,10.94
2023-09-09T07:57:00,rvs,12.89
2023-09-09T07:58:00,rvs,13.52
2023-09-09T07:59:00,rvs,14.45
2023-09-09T08:00:00,rvs,14.94
2023-09-09T08:01:00,rvs,15.86
2023-09-09T08:02:00,rvs,15.00
2023-09-09T08:03:00,rvs,14.92
2023-09-09T08:04:00,rvs,14.78
2023-09-09T08:05:00,rvs,16.68
2023-09-09T08:06:00,rvs,17.60
2023-09-09T08:07:00,rvs,17.95
2023-09-09T08:08:00,rvs,18.37
2023-09-09T08:09:00,rvs,19.39
2023-09-09T08:10:00,rvs,19.61
2023-09-09T08:11:00,rvs,17.22
2023-09-09T08:12:00,rvs,18.71
2023-09-09T08:13:00,rvs,19.00
2023-09-09T08:14:00,rvs,21.75
2023-09-09T08:15:00,rvs,24.76
2023-09-09T08:16:00,rvs,24.76
2023-09-09T08:17:00,rvs,23.96
2023-09-09T08:18:00,rvs,27.42
2023-09-09T08:19:00,rvs,28.94
2023-09-09T08:20:00,rvs,25.82
2023-09-09T08:21:00,rvs,24.64
2023-09-09T08:22:00,rvs,21.55
2023-09-09T08:23:00,rvs,21.75
2023-09-09T08:24:00,rvs,21.55
2023-09-09T08:25:00,rvs,22.40
2023-09-09T08:26:00,rvs,23.01
2023-09-09T08:27:00,rvs,23.98
2023-09-09T08:28:00,rvs,23.81
2023-09-09T08:29:00,rvs,23.67
2023-09-09T08:30:00,rvs,23.53
2023-09-09T08:31:00,rvs,20.07
2023-09-09T08:32:00,rvs,20.14
2023-09-09T08:33:00,rvs,18.65
2023-09-09T08:34:00,rvs,19.54
2023-09-09T08:35:00,rvs,19.87
2023-09-09T08:36:00,rvs,18.41
2023-09-09T08:37:00,rvs,19.24
2023-09-09T08:38:00,rvs,15.17
2023-09-09T08:39:00,rvs,18.28
2023-09-09T08:40:00,rvs,18.05
2023-09-09T08:41:00,rvs,17.82
2023-09-09T08:42:00,rvs,18.61
2023-09-09T08:43:00,rvs,19.13
2023-09-09T08:44:00,rvs,19.39
2023-09-09T08:45:00,rvs,19.87
2023-09-09T08:46:00,rvs,19.48
2023-09-09T08:47:00,rvs,19.43
2023-09-09T08:48:00,rvs,19.57
2023-09-09T08:49:00,rvs,19.86
2023-09-09T08:50:00,rvs,19.62
2023-09-09T08:51:00,rvs,19.62
2023-09-09T08:52:00,rvs,19.52
2023-09-09T08:53:00,rvs,19.35
2023-09-09T08:54:00,rvs,19.51
2023-09-09T08:55:00,rvs,14.67
2023-09-09T08:56:00,rvs,11.51
2023-09-09T08:57:00,rvs,11.61
2023-09-09T08:58:00,rvs,11.50
2023-09-09T08:59:00,rvs,11.08
2023-09-09T09:00:00,rvs,11.12
2023-09-09T09:01:00,rvs,11.26
2023-09-09T09:02:00,rvs,11.09
2023-09-09T09:03:00,rvs,11.45
2023-09-09T09:04:00,rvs,11.37
2023-09-09T09:05:00,rvs,13.69
2023-09-09T09:06:00,rvs,13.85
2023-09-09T09:07:00,rvs,14.47
2023-09-09T09:08:00,rvs,15.31
2023-09-09T09:09:00,rvs,18.44
2023-09-09T09:10:00,rvs,18.00
2023-09-09T09:11:00,rvs,17.96
2023-09-09T09:12:00,rvs,18.22
2023-09-09T09:13:00,rvs,18.87
2023-09-09T09:14:00,rvs,19.12
2023-09-09T09:15:00,rvs,19.60
2023-09-09T09:16:00,rvs,19.19
2023-09-09T09:17:00,rvs,19.61
2023-09-09T09:18:00,rvs,19.71
2023-09-09T09:19:00,rvs,16.21
2023-09-09T09:20:00,rvs,16.27
2023-09-09T09:21:00,rvs,11.49
2023-09-09T09:22:00,rvs,11.41
2023-09-09T09:23:00,rvs,12.31
2023-09-09T09:24:00,rvs,25.70
2023-09-09T09:25:00,rvs,14.60
2023-09-09T09:26:00,rvs,14.66
2023-09-09T09:27:00,rvs,16.04
2023-09-09T09:28:00,rvs,29.35
2023-09-09T09:29:00,rvs,16.91
2023-09-09T09:30:00,rvs,29.37
2023-09-09T09:31:00,rvs,29.42
2023-09-09T09:32:00,rvs,17.35
2023-09-09T09:33:00,rvs,16.88
2023-09-09T09:34:00,rvs,11.40
2023-09-09T09:35:00,rvs,11.33
2023-09-09T09:36:00,rvs,11.72
2023-09-09T09:37:00,rvs,12.59
2023-09-09T09:38:00,rvs,15.00
2023-09-09T09:39:00,rvs,14.72
2023-09-09T09:40:00,rvs,14.82
2023-09-09T09:41:00,rvs,14.78
2023-09-09T09:42:00,rvs,15.63
2023-09-09T09:43:00,rvs,15.89
2023-09-09T09:44:00,rvs,18.05
2023-09-09T09:45:00,rvs,19.17
2023-09-09T09:46:00,rvs,19.54
2023-09-09T09:47:00,rvs,20.24
2023-09-09T09:48:00,rvs,20.86
2023-09-09T09:49:00,rvs,23.70
2023-09-09T09:50:00,rvs,24.07
2023-09-09T09:51:00,rvs,41.57
2023-09-09T09:52:00,rvs,23.64
2023-09-09T09:53:00,rvs,23.31
2023-09-09T09:54:00,rvs,23.25
2023-09-09T09:55:00,rvs,23.45
2023-09-09T09:56:00,rvs,23.89
2023-09-09T09:57:00,rvs,23.73
2023-09-09T09:58:00,rvs,24.21
2023-09-09T09:59:00,rvs,16.02
2023-09-09T10:00:00,rvs,15.72
2023-09-09T10:01:00,rvs,15.66
2023-09-09T10:02:00,rvs,12.91
2023-09-09T10:03:00,rvs,12.90
2023-09-09T10:04:00,rvs,12.83
2023-09-09T10:05:00,rvs,12.26
2023-09-09T10:06:00,rvs,12.20
2023-09-09T10:07:00,rvs,12.16
2023-09-09T10:08:00,rvs,12.16
2023-09-09T10:09:00,rvs,12.22
2023-09-09T10:10:00,rvs,13.11
2023-09-09T10:11:00,rvs,15.24
2023-09-09T10:12:00,rvs,17.86
2023-09-09T10:13:00,rvs,19.38
2023-09-09T10:14:00,rvs,20.18
2023-09-09T10:15:00,rvs,19.73
2023-09-09T10:16:00,rvs,24.30
2023-09-09T10:17:00,rvs,20.33
2023-09-09T10:18:00,rvs,19.93
2023-09-09T10:19:00,rvs,20.34
2023-09-09T10:20:00,rvs,19.08
2023-09-09T10:21:00,rvs,19.17
2023-09-09T10:22:00,rvs,18.89
2023-09-09T10:23:00,rvs,18.78
2023-09-09T10:24:00,rvs,18.82
2023-09-09T10:25:00,rvs,18.24
2023-09-09T10:26:00,rvs,18.36
2023-09-09T10:27:00,rvs,14.61
2023-09-09T10:28:00,rvs,12.51
2023-09-09T10:29:00,rvs,12.43
2023-09-09T10:30:00,rvs,12.36
2023-09-09T10:31:00,rvs,11.78
2023-09-09T10:32:00,rvs,11.32
2023-09-09T10:33:00,rvs,13.47
2023-09-09T10:34:00,rvs,13.70
2023-09-09T10:35:00,rvs,13.76
2023-09-09T10:36:00,rvs,14.38
2023-09-09T10:37:00,rvs,15.35
2023-09-09T10:38:00,rvs,14.56
2023-09-09T10:39:00,rvs,15.12
2023-09-09T10:40:00,rvs,15.42
2023-09-09T10:41:00,rvs,15.73
2023-09-09T10:42:00,rvs,33.66
2023-09-09T10:43:00,rvs,17.92
2023-09-09T10:44:00,rvs,17.91
2023-09-09T10:45:00,rvs,17.98
2023-09-09T10:46:00,rvs,20.75
2023-09-09T10:47:00,rvs,20.24
2023-09-09T10:48:00,rvs,19.11
2023-09-09T10:49:00,rvs,35.27
2023-09-09T10:50:00,rvs,19.26
2023-09-09T10:51:00,rvs,16.31
2023-09-09T10:52:00,rvs,16.28
2023-09-09T10:53:00,rvs,16.48
2023-09-09T10:54:00,rvs,11.51
2023-09-09T10:55:00,rvs,12.11
2023-09-09T10:56:00,rvs,12.28
2023-09-09T10:57:00,rvs,12.32
2023-09-09T10:58:00,rvs,16.06
2023-09-09T10:59:00,rvs,20.60
2023-09-09T11:00:00,rvs,22.98
2023-09-09T11:01:00,rvs,24.03
2023-09-09T11:02:00,rvs,23.82
2023-09-09T11:03:00,rvs,20.24
2023-09-09T11:04:00,rvs,21.14
2023-09-09T11:05:00,rvs,25.37
2023-09-09T11:06:00,rvs,21.81
2023-09-09T11:07:00,rvs,21.99
2023-09-09T11:08:00,rvs,42.77
2023-09-09T11:09:00,rvs,21.84
2023-09-09T11:10:00,rvs,25.98
2023-09-09T11:11:00,rvs,22.80
2023-09-09T11:12:00,rvs,24.45
2023-09-09T11:13:00,rvs,23.44
2023-09-09T11:14:00,rvs,18.98
2023-09-09T11:15:00,rvs,22.13
2023-09-09T11:16:00,rvs,30.31
2023-09-09T11:17:00,rvs,28.66
2023-09-09T11:18:00,rvs,28.36
2023-09-09T11:19:00,rvs,30.58
2023-09-09T11:20:00,rvs,28.02
2023-09-09T11:21:00,rvs,31.04
2023-09-09T11:22:00,rvs,28.92
2023-09-09T11:23:00,rvs,26.90
2023-09-09T11:24:00,rvs,29.16
2023-09-09T11:25:00,rvs,21.59
2023-09-09T11:26:00,rvs,23.27
2023-09-09T11:27:00,rvs,32.13
2023-09-09T11:28:00,rvs,26.92
2023-09-09T11:29:00,rvs,22.58
2023-09-09T11:30:00,rvs,28.70
2023-09-09T11:31:00,rvs,25.27
2023-09-09T11:32:00,rvs,23.47
2023-09-09T11:33:00,rvs,45.32
2023-09-09T11:34:00,rvs,27.21
2023-09-09T11:35:00,rvs,26.24
2023-09-09T11:36:00,rvs,25.39
2023-09-09T11:37:00,rvs,21.67
2023-09-09T11:38:00,rvs,25.38
2023-09-09T11:39:00,rvs,26.10
2023-09-09T11:40:00,rvs,19.25
2023-09-09T11:41:00,rvs,23.32
2023-09-09T11:42:00,rvs,30.52
2023-09-09T11:43:00,rvs,21.45
2023-09-09T11:44:00,rvs,21.82
2023-09-09T11:45:00,rvs,27.36
2023-09-09T11:46:00,rvs,36.84
2023-09-09T11:47:00,rvs,19.84
2023-09-09T11:48:00,rvs,23.92
2023-09-09T11:49:00,rvs,19.22
2023-09-09T11:50:00,rvs,19.21
2023-09-09T11:51:00,rvs,22.23
2023-09-09T11:52:00,rvs,30.27
2023-09-09T11:53:00,rvs,22.10
2023-09-09T11:54:00,rvs,41.32
2023-09-09T11:55:00,rvs,27.83
2023-09-09T11:56:00,rvs,23.74
2023-09-09T11:57:00,rvs,27.10
2023-09-09T11:58:00,rvs,28.76
2023-09-09T11:59:00,rvs,28.87
2023-09-09T12:00:00,rvs,29.89
2023-09-09T12:01:00,rvs,29.92
2023-09-09T12:02:00,rvs,28.80
2023-09-09T12:03:00,rvs,32.90
2023-09-09T12:04:00,rvs,34.48
2023-09-09T12:05:00,rvs,32.95
2023-09-09T12:06:00,rvs,55.53
2023-09-09T12:07:00,rvs,40.58
2023-09-09T12:08:00,rvs,42.23
2023-09-09T12:09:00,rvs,42.02
2023-09-09T12:10:00,rvs,38.90
2023-09-09T12:11:00,rvs,38.38
2023-09-09T12:12:00,rvs,38.02
2023-09-09T12:13:00,rvs,38.49
2023-09-09T12:14:00,rvs,35.49
2023-09-09T12:15:00,rvs,35.15
2023-09-09T12:16:00,rvs,34.70
2023-09-09T12:17:00,rvs,35.43
2023-09-09T12:18:00,rvs,38.87
2023-09-09T12:19:00,rvs,39.93
2023-09-09T12:20:00,rvs,39.46
2023-09-09T12:21:00,rvs,39.47
2023-09-09T12:22:00,rvs,40.60
2023-09-09T12:23:00,rvs,39.28
2023-09-09T12:24:00,rvs,40.29
2023-09-09T12:25:00,rvs,42.56
2023-09-09T12:26:00,rvs,43.47
2023-09-09T12:27:00,rvs,45.43
2023-09-09T12:28:00,rvs,45.09
2023-09-09T12:29:00,rvs,37.50
2023-09-09T12:30:00,rvs,33.31
2023-09-09T12:31:00,rvs,33.28
2023-09-09T12:32:00,rvs,33.40
2023-09-09T12:33:00,rvs,55.29
2023-09-09T12:34:00,rvs,38.58
2023-09-09T12:35:00,rvs,34.74
2023-09-09T12:36:00,rvs,30.41
2023-09-09T12:37:00,rvs,26.41
2023-09-09T12:38:00,rvs,29.54
2023-09-09T12:39:00,rvs,30.54
2023-09-09T12:40:00,rvs,42.48
2023-09-09T12:41:00,rvs,29.43
2023-09-09T12:42:00,rvs,29.95
2023-09-09T12:43:00,rvs,30.05
2023-09-09T12:44:00,rvs,31.81
2023-09-09T12:45:00,rvs,33.15
2023-09-09T12:46:00,rvs,29.00
2023-09-09T12:47:00,rvs,30.38
2023-09-09T12:48:00,rvs,30.74
2023-09-09T12:49:00,rvs,35.63
2023-09-09T12:50:00,rvs,34.42
2023-09-09T12:51:00,rvs,32.66
2023-09-09T12:52:00,rvs,34.62
2023-09-09T12:53:00,rvs,34.84
2023-09-09T12:54:00,rvs,30.98
2023-09-09T12:55:00,rvs,32.91
2023-09-09T12:56:00,rvs,30.99
2023-09-09T12:57:00,rvs,26.59
2023-09-09T12:58:00,rvs,26.74
2023-09-09T12:59:00,rvs,27.20
2023-09-09T13:00:00,rvs,27.12
2023-09-09T13:01:00,rvs,27.21
2023-09-09T13:02:00,rvs,30.51
2023-09-09T13:03:00,rvs,26.10
2023-09-09T13:04:00,rvs,27.45
2023-09-09T13:05:00,rvs,23.26
2023-09-09T13:06:00,rvs,23.00
2023-09-09T13:07:00,rvs,21.52
2023-09-09T13:08:00,rvs,23.93
2023-09-09T13:09:00,rvs,24.25
2023-09-09T13:10:00,rvs,24.03
2023-09-09T13:11:00,rvs,19.97
2023-09-09T13:12:00,rvs,19.95
2023-09-09T13:13:00,rvs,24.44
2023-09-09T13:14:00,rvs,24.10
2023-09-09T13:15:00,rvs,29.65
2023-09-09T13:16:00,rvs,27.10
2023-09-09T13:17:00,rvs,36.94
2023-09-09T13:18:00,rvs,32.33